Location: Dillon
(41.1766°N, 107.0923°W)
Time: 07:48:16
(UTC+00:00)

DIWATA 2B (PO-101) - Pass Details

Date: 04 July 2022
Orbit: 583 x 599 km, 98.0° (Epoch: 15 August)

Event Time Altitude Azimuth Distance (km) Brightness Sun altitude
Exits shadow 10:07:33 18° 256° (WSW) 1,497 ? -14.2°
Maximum altitude 10:08:07 18° 267° (W) 1,478 ? -14.2°
Drops below altitude 10° 10:11:03 10° 311° (NW) 1,945 ? -13.8°
Sets 10:13:49 0° 330° (NNW) 2,853 ? -13.4°
